Time,TemperatureF,DewpointF,PressureIn,WindDirection,WindDirectionDegrees,WindSpeedMPH,WindSpeedGustMPH,Humidity,HourlyPrecipIn,Conditions,Clouds,dailyrainin,SoftwareType,DateUTC
2013-04-06 00:00:00,54.9,49.8,30.14,NW,326,0.0,0.0,83,0.00,,,0.00,meteohub,2013-04-06 04:00:00,
2013-04-06 00:01:00,54.9,49.8,30.14,NW,326,0.0,0.0,83,0.00,,,0.00,meteohub,2013-04-06 04:01:00,
2013-04-06 00:02:00,54.9,49.8,30.14,NW,326,0.0,0.0,83,0.00,,,0.00,meteohub,2013-04-06 04:02:00,
2013-04-06 00:07:00,54.7,49.6,30.14,NW,326,0.0,0.0,83,0.00,,,0.00,meteohub,2013-04-06 04:07:00,
2013-04-06 00:12:00,54.7,50.0,30.14,NW,326,0.0,0.0,84,0.00,,,0.00,meteohub,2013-04-06 04:12:00,
2013-04-06 00:17:00,54.5,49.8,30.13,NW,326,0.0,0.0,84,0.00,,,0.00,meteohub,2013-04-06 04:17:00,
2013-04-06 00:23:00,54.1,49.8,30.13,NW,326,0.0,0.0,85,0.00,,,0.00,meteohub,2013-04-06 04:23:00,
2013-04-06 00:28:00,54.1,49.8,30.13,NW,326,0.0,0.0,85,0.00,,,0.00,meteohub,2013-04-06 04:28:00,
2013-04-06 00:34:00,54.0,49.6,30.13,NW,326,0.0,0.0,85,0.00,,,0.00,meteohub,2013-04-06 04:34:00,
2013-04-06 00:39:00,53.8,49.5,30.12,NW,326,0.0,0.0,85,0.00,,,0.00,meteohub,2013-04-06 04:39:00,
2013-04-06 00:44:00,53.8,49.6,30.12,NW,326,0.0,0.0,86,0.00,,,0.00,meteohub,2013-04-06 04:44:00,
2013-04-06 00:50:00,53.8,49.6,30.12,NW,326,0.0,0.0,86,0.00,,,0.00,meteohub,2013-04-06 04:50:00,
2013-04-06 00:55:00,53.8,49.6,30.12,NW,326,0.0,0.0,86,0.00,,,0.00,meteohub,2013-04-06 04:55:00,
2013-04-06 01:00:00,53.6,49.5,30.12,NW,326,0.0,0.0,86,0.00,,,0.00,meteohub,2013-04-06 05:00:00,
2013-04-06 01:05:00,53.4,49.3,30.12,NW,326,0.0,0.0,86,0.01,,,0.01,meteohub,2013-04-06 05:05:00,
2013-04-06 01:11:00,53.4,49.3,30.12,NW,326,0.0,0.0,86,0.01,,,0.01,meteohub,2013-04-06 05:11:00,
2013-04-06 01:16:00,53.2,49.1,30.12,NW,326,0.0,0.0,86,0.01,,,0.01,meteohub,2013-04-06 05:16:00,
2013-04-06 01:22:00,53.1,49.3,30.12,NW,326,0.0,0.0,87,0.01,,,0.01,meteohub,2013-04-06 05:22:00,
2013-04-06 01:27:00,53.1,48.9,30.12,NW,326,0.0,0.0,86,0.01,,,0.01,meteohub,2013-04-06 05:27:00,
2013-04-06 01:32:00,52.9,49.1,30.12,NW,326,0.0,0.0,87,0.01,,,0.01,meteohub,2013-04-06 05:32:00,
2013-04-06 01:37:00,52.9,49.1,30.12,NW,326,0.0,0.0,87,0.01,,,0.01,meteohub,2013-04-06 05:37:00,
2013-04-06 01:42:00,52.9,49.5,30.12,NW,326,0.0,0.0,88,0.01,,,0.01,meteohub,2013-04-06 05:42:00,
2013-04-06 01:47:00,52.5,48.7,30.12,NW,326,0.0,0.0,87,0.01,,,0.01,meteohub,2013-04-06 05:47:00,
2013-04-06 01:52:00,52.5,49.1,30.12,NW,326,0.0,0.0,88,0.01,,,0.01,meteohub,2013-04-06 05:52:00,
2013-04-06 01:57:00,52.3,48.9,30.12,NW,326,0.0,0.0,88,0.01,,,0.01,meteohub,2013-04-06 05:57:00,
2013-04-06 02:03:00,52.2,48.7,30.12,NW,326,0.0,0.0,88,0.00,,,0.01,meteohub,2013-04-06 06:03:00,
2013-04-06 02:08:00,52.2,48.7,30.12,NW,326,0.0,0.0,88,0.00,,,0.01,meteohub,2013-04-06 06:08:00,
2013-04-06 02:13:00,52.0,48.6,30.12,NW,326,0.0,0.0,88,0.00,,,0.01,meteohub,2013-04-06 06:13:00,
2013-04-06 02:19:00,52.0,48.6,30.13,NW,326,0.0,0.0,88,0.00,,,0.01,meteohub,2013-04-06 06:19:00,
2013-04-06 02:24:00,51.8,48.4,30.12,NW,326,0.0,0.0,88,0.00,,,0.01,meteohub,2013-04-06 06:24:00,
2013-04-06 02:29:00,51.6,48.6,30.12,NW,326,0.0,0.0,89,0.00,,,0.01,meteohub,2013-04-06 06:29:00,
2013-04-06 02:34:00,51.6,48.2,30.12,NW,326,0.0,0.0,88,0.00,,,0.01,meteohub,2013-04-06 06:34:00,
2013-04-06 02:39:00,51.4,48.4,30.12,NW,326,0.0,0.0,89,0.00,,,0.01,meteohub,2013-04-06 06:39:00,
2013-04-06 02:44:00,51.4,48.4,30.12,NW,326,0.0,0.0,89,0.00,,,0.01,meteohub,2013-04-06 06:44:00,
2013-04-06 02:50:00,51.4,48.4,30.11,NW,326,0.0,0.0,89,0.00,,,0.01,meteohub,2013-04-06 06:50:00,
2013-04-06 02:55:00,51.4,48.0,30.10,NW,326,0.0,0.0,88,0.00,,,0.01,meteohub,2013-04-06 06:55:00,
2013-04-06 03:00:00,51.4,48.0,30.10,NW,326,0.0,1.0,88,0.00,,,0.01,meteohub,2013-04-06 07:00:00,
2013-04-06 03:05:00,51.4,48.0,30.10,NW,326,0.0,1.0,88,0.00,,,0.01,meteohub,2013-04-06 07:05:00,
2013-04-06 03:10:00,51.4,48.0,30.09,NW,326,0.0,0.0,88,0.00,,,0.01,meteohub,2013-04-06 07:10:00,
2013-04-06 03:15:00,51.3,47.8,30.09,NW,326,0.0,0.0,88,0.00,,,0.01,meteohub,2013-04-06 07:15:00,
2013-04-06 03:21:00,51.3,47.8,30.10,NW,326,0.0,0.0,88,0.00,,,0.01,meteohub,2013-04-06 07:21:00,
2013-04-06 03:26:00,51.3,48.2,30.10,NW,326,0.0,0.0,89,0.00,,,0.01,meteohub,2013-04-06 07:26:00,
2013-04-06 03:31:00,51.1,48.0,30.10,NW,326,0.0,0.0,89,0.00,,,0.01,meteohub,2013-04-06 07:31:00,
2013-04-06 03:37:00,51.1,48.0,30.10,NW,326,0.0,0.0,89,0.00,,,0.01,meteohub,2013-04-06 07:37:00,
2013-04-06 03:42:00,50.7,47.7,30.11,NW,326,0.0,0.0,89,0.00,,,0.01,meteohub,2013-04-06 07:42:00,
2013-04-06 03:47:00,50.7,47.7,30.10,NW,326,0.0,0.0,89,0.00,,,0.01,meteohub,2013-04-06 07:47:00,
2013-04-06 03:52:00,50.7,47.8,30.10,NW,326,0.0,0.0,90,0.00,,,0.01,meteohub,2013-04-06 07:52:00,
2013-04-06 03:57:00,50.7,47.7,30.10,NW,326,0.0,0.0,89,0.00,,,0.01,meteohub,2013-04-06 07:57:00,
2013-04-06 04:02:00,50.5,47.7,30.11,NW,326,0.0,0.0,90,0.00,,,0.01,meteohub,2013-04-06 08:02:00,
2013-04-06 04:08:00,50.5,47.7,30.11,NW,326,0.0,0.0,90,0.00,,,0.01,meteohub,2013-04-06 08:08:00,
2013-04-06 04:13:00,50.4,47.5,30.11,NW,326,0.0,0.0,90,0.00,,,0.01,meteohub,2013-04-06 08:13:00,
2013-04-06 04:18:00,50.4,47.5,30.11,NW,326,0.0,0.0,90,0.00,,,0.01,meteohub,2013-04-06 08:18:00,
2013-04-06 04:23:00,50.2,47.3,30.10,NW,326,0.0,0.0,90,0.00,,,0.01,meteohub,2013-04-06 08:23:00,
2013-04-06 04:28:00,50.2,47.3,30.10,NW,326,0.0,0.0,90,0.00,,,0.01,meteohub,2013-04-06 08:28:00,
2013-04-06 04:34:00,49.8,46.9,30.10,NW,326,0.0,0.0,90,0.00,,,0.01,meteohub,2013-04-06 08:34:00,
2013-04-06 04:39:00,49.8,46.9,30.10,NW,326,0.0,0.0,90,0.00,,,0.01,meteohub,2013-04-06 08:39:00,
2013-04-06 04:44:00,49.6,47.1,30.10,NW,326,0.0,0.0,91,0.00,,,0.01,meteohub,2013-04-06 08:44:00,
2013-04-06 04:49:00,49.6,47.1,30.10,NW,326,0.0,0.0,91,0.00,,,0.01,meteohub,2013-04-06 08:49:00,
2013-04-06 04:55:00,49.5,46.9,30.10,NW,326,0.0,0.0,91,0.00,,,0.01,meteohub,2013-04-06 08:55:00,
2013-04-06 05:00:00,49.5,46.9,30.10,NW,326,0.0,0.0,91,0.00,,,0.01,meteohub,2013-04-06 09:00:00,
2013-04-06 05:05:00,49.5,46.9,30.10,NW,326,0.0,0.0,91,0.00,,,0.01,meteohub,2013-04-06 09:05:00,
2013-04-06 05:10:00,49.3,46.8,30.10,NW,326,0.0,0.0,91,0.00,,,0.01,meteohub,2013-04-06 09:10:00,
2013-04-06 05:15:00,49.3,46.8,30.10,NW,326,0.0,0.0,91,0.00,,,0.01,meteohub,2013-04-06 09:15:00,
2013-04-06 05:21:00,49.1,46.6,30.10,NW,326,0.0,0.0,91,0.00,,,0.01,meteohub,2013-04-06 09:21:00,
2013-04-06 05:26:00,48.9,46.4,30.10,NW,326,0.0,0.0,91,0.00,,,0.01,meteohub,2013-04-06 09:26:00,
2013-04-06 05:31:00,48.9,46.4,30.10,NW,326,0.0,0.0,91,0.00,,,0.01,meteohub,2013-04-06 09:31:00,
2013-04-06 05:36:00,48.7,46.2,30.10,NW,326,0.0,0.0,91,0.00,,,0.01,meteohub,2013-04-06 09:36:00,
2013-04-06 05:42:00,48.7,46.6,30.11,NW,326,0.0,0.0,92,0.00,,,0.01,meteohub,2013-04-06 09:42:00,
2013-04-06 05:47:00,48.7,46.2,30.11,NW,326,0.0,0.0,91,0.00,,,0.01,meteohub,2013-04-06 09:47:00,
2013-04-06 05:52:00,48.6,46.0,30.10,NW,326,0.0,0.0,91,0.00,,,0.01,meteohub,2013-04-06 09:52:00,
2013-04-06 05:57:00,48.6,46.0,30.10,NW,326,0.0,0.0,91,0.00,,,0.01,meteohub,2013-04-06 09:57:00,
2013-04-06 06:02:00,48.4,46.2,30.10,NW,326,0.0,0.0,92,0.00,,,0.01,meteohub,2013-04-06 10:02:00,
2013-04-06 06:07:00,48.4,46.2,30.10,NW,326,0.0,0.0,92,0.00,,,0.01,meteohub,2013-04-06 10:07:00,
2013-04-06 06:13:00,48.2,47.1,30.10,NW,326,0.0,0.0,96,0.00,,,0.01,meteohub,2013-04-06 10:13:00,
2013-04-06 06:18:00,48.0,45.5,30.09,NW,326,0.0,1.0,91,0.00,,,0.01,meteohub,2013-04-06 10:18:00,
2013-04-06 06:23:00,48.0,45.5,30.10,NW,326,0.0,1.0,91,0.00,,,0.01,meteohub,2013-04-06 10:23:00,
2013-04-06 06:28:00,47.8,45.7,30.10,NW,326,0.0,1.0,92,0.00,,,0.01,meteohub,2013-04-06 10:28:00,
2013-04-06 06:34:00,48.0,45.9,30.10,NW,326,0.0,0.0,92,0.00,,,0.01,meteohub,2013-04-06 10:34:00,
2013-04-06 06:39:00,48.0,45.9,30.10,NW,326,0.0,0.0,92,0.00,,,0.01,meteohub,2013-04-06 10:39:00,
2013-04-06 06:45:00,48.0,45.9,30.10,NW,326,0.0,0.0,92,0.00,,,0.01,meteohub,2013-04-06 10:45:00,
2013-04-06 06:50:00,48.0,45.9,30.10,NW,326,0.0,0.0,92,0.00,,,0.01,meteohub,2013-04-06 10:50:00,
2013-04-06 06:55:00,48.0,45.9,30.10,NW,326,0.0,0.0,92,0.00,,,0.01,meteohub,2013-04-06 10:55:00,
2013-04-06 07:00:00,48.0,45.9,30.10,NW,326,0.0,0.0,92,0.00,,,0.01,meteohub,2013-04-06 11:00:00,
2013-04-06 07:06:00,47.8,45.7,30.11,NW,326,0.0,0.0,92,0.00,,,0.01,meteohub,2013-04-06 11:06:00,
2013-04-06 07:11:00,47.8,45.7,30.10,NW,326,0.0,0.0,92,0.00,,,0.01,meteohub,2013-04-06 11:11:00,
2013-04-06 07:16:00,47.8,45.7,30.10,NW,326,0.0,2.0,92,0.00,,,0.01,meteohub,2013-04-06 11:16:00,
2013-04-06 07:22:00,47.8,45.7,30.10,NW,326,0.0,2.0,92,0.00,,,0.01,meteohub,2013-04-06 11:22:00,
2013-04-06 07:27:00,47.8,45.7,30.10,NW,326,0.0,2.0,92,0.00,,,0.01,meteohub,2013-04-06 11:27:00,
2013-04-06 07:32:00,47.8,45.7,30.11,NW,326,0.0,0.0,92,0.00,,,0.01,meteohub,2013-04-06 11:32:00,
2013-04-06 07:35:00,47.8,45.7,30.11,NW,326,0.0,0.0,92,0.00,,,0.01,meteohub,2013-04-06 11:35:00,
2013-04-06 07:40:00,47.8,45.7,30.11,NW,326,0.0,0.0,92,0.00,,,0.01,meteohub,2013-04-06 11:40:00,
2013-04-06 07:46:00,47.7,45.5,30.12,NW,326,0.0,0.0,92,0.00,,,0.01,meteohub,2013-04-06 11:46:00,
2013-04-06 07:51:00,47.7,45.5,30.12,NW,326,0.0,0.0,92,0.00,,,0.01,meteohub,2013-04-06 11:51:00,
2013-04-06 07:56:00,47.7,45.7,30.12,NW,326,0.0,0.0,93,0.00,,,0.01,meteohub,2013-04-06 11:56:00,
2013-04-06 08:01:00,48.0,46.0,30.12,NW,326,0.0,1.0,93,0.00,,,0.01,meteohub,2013-04-06 12:01:00,
2013-04-06 08:06:00,48.2,46.2,30.12,NW,326,0.0,1.0,93,0.00,,,0.01,meteohub,2013-04-06 12:06:00,
2013-04-06 08:12:00,48.4,46.4,30.12,NW,326,1.0,0.0,93,0.00,,,0.01,meteohub,2013-04-06 12:12:00,
2013-04-06 08:17:00,48.7,46.8,30.12,NW,326,0.0,4.0,93,0.00,,,0.01,meteohub,2013-04-06 12:17:00,
2013-04-06 08:22:00,48.9,46.8,30.12,NW,326,2.0,4.0,92,0.00,,,0.01,meteohub,2013-04-06 12:22:00,
2013-04-06 08:27:00,49.3,47.1,30.12,NW,326,1.0,4.0,92,0.00,,,0.01,meteohub,2013-04-06 12:27:00,
2013-04-06 08:33:00,49.6,47.1,30.12,NW,326,0.0,4.0,91,0.00,,,0.01,meteohub,2013-04-06 12:33:00,
2013-04-06 08:38:00,49.8,47.3,30.12,NW,326,0.0,4.0,91,0.00,,,0.01,meteohub,2013-04-06 12:38:00,
2013-04-06 08:43:00,50.4,47.5,30.12,South,177,0.0,4.0,90,0.00,,,0.01,meteohub,2013-04-06 12:43:00,
2013-04-06 08:49:00,50.5,47.5,30.12,South,177,4.0,6.0,89,0.00,,,0.01,meteohub,2013-04-06 12:49:00,
2013-04-06 08:54:00,51.1,48.0,30.11,SE,144,5.0,6.0,89,0.00,,,0.01,meteohub,2013-04-06 12:54:00,
2013-04-06 08:59:00,51.4,48.0,30.12,SSE,150,2.0,5.0,88,0.00,,,0.01,meteohub,2013-04-06 12:59:00,
2013-04-06 09:05:00,51.6,47.8,30.12,SSE,150,1.0,6.0,87,0.00,,,0.01,meteohub,2013-04-06 13:05:00,
2013-04-06 09:10:00,52.3,48.6,30.12,SSE,150,0.0,6.0,87,0.00,,,0.01,meteohub,2013-04-06 13:10:00,
2013-04-06 09:16:00,52.9,48.7,30.13,SSE,150,0.0,5.0,86,0.00,,,0.01,meteohub,2013-04-06 13:16:00,
2013-04-06 09:21:00,53.2,49.1,30.13,SSE,150,2.0,5.0,86,0.00,,,0.01,meteohub,2013-04-06 13:21:00,
2013-04-06 09:27:00,54.0,49.8,30.13,SSE,150,0.0,4.0,86,0.00,,,0.01,meteohub,2013-04-06 13:27:00,
2013-04-06 09:32:00,54.7,50.2,30.12,SSE,156,4.0,5.0,85,0.00,,,0.01,meteohub,2013-04-06 13:32:00,
2013-04-06 09:37:00,54.9,50.4,30.12,SE,141,4.0,6.0,85,0.00,,,0.01,meteohub,2013-04-06 13:37:00,
2013-04-06 09:42:00,55.2,50.7,30.12,SE,142,0.0,9.0,85,0.00,,,0.01,meteohub,2013-04-06 13:42:00,
2013-04-06 09:47:00,55.9,51.4,30.12,South,169,5.0,9.0,85,0.00,,,0.01,meteohub,2013-04-06 13:47:00,
2013-04-06 09:52:00,56.5,51.6,30.13,SE,127,5.0,9.0,84,0.00,,,0.01,meteohub,2013-04-06 13:52:00,
2013-04-06 09:58:00,57.0,52.0,30.13,SSE,165,0.0,7.0,83,0.00,,,0.01,meteohub,2013-04-06 13:58:00,
2013-04-06 10:03:00,57.7,52.7,30.13,SE,134,1.0,7.0,83,0.00,,,0.01,meteohub,2013-04-06 14:03:00,
2013-04-06 10:08:00,58.3,53.1,30.12,SE,138,5.0,7.0,83,0.00,,,0.01,meteohub,2013-04-06 14:08:00,
2013-04-06 10:13:00,59.0,53.2,30.12,SSE,153,5.0,8.0,81,0.00,,,0.01,meteohub,2013-04-06 14:13:00,
2013-04-06 10:19:00,59.9,53.4,30.12,SSE,161,5.0,11.0,79,0.00,,,0.01,meteohub,2013-04-06 14:19:00,
2013-04-06 10:24:00,60.4,54.0,30.12,South,173,2.0,12.0,79,0.00,,,0.01,meteohub,2013-04-06 14:24:00,
2013-04-06 10:29:00,61.3,54.5,30.13,SSE,148,6.0,12.0,78,0.00,,,0.01,meteohub,2013-04-06 14:29:00,
2013-04-06 10:34:00,61.9,54.3,30.14,SSE,147,6.0,12.0,76,0.00,,,0.01,meteohub,2013-04-06 14:34:00,
2013-04-06 10:40:00,62.2,54.1,30.14,SSW,209,6.0,11.0,75,0.00,,,0.01,meteohub,2013-04-06 14:40:00,
2013-04-06 10:45:00,62.8,54.7,30.13,SSE,154,6.0,11.0,75,0.00,,,0.01,meteohub,2013-04-06 14:45:00,
2013-04-06 10:50:00,63.1,54.3,30.13,South,171,6.0,13.0,73,0.00,,,0.01,meteohub,2013-04-06 14:50:00,
2013-04-06 10:55:00,63.5,54.3,30.14,SSE,168,9.0,14.0,72,0.00,,,0.01,meteohub,2013-04-06 14:55:00,
2013-04-06 11:01:00,63.9,54.3,30.13,SSW,198,2.0,14.0,71,0.00,,,0.01,meteohub,2013-04-06 15:01:00,
2013-04-06 11:06:00,64.4,54.3,30.13,SSE,159,11.0,13.0,70,0.00,,,0.01,meteohub,2013-04-06 15:06:00,
2013-04-06 11:11:00,64.8,53.6,30.13,SSE,155,4.0,13.0,67,0.00,,,0.01,meteohub,2013-04-06 15:11:00,
2013-04-06 11:16:00,64.9,53.8,30.13,South,171,6.0,14.0,67,0.00,,,0.01,meteohub,2013-04-06 15:16:00,
2013-04-06 11:22:00,65.1,52.7,30.13,SSE,167,7.0,14.0,64,0.00,,,0.01,meteohub,2013-04-06 15:22:00,
2013-04-06 11:27:00,65.7,53.2,30.14,SSE,157,9.0,16.0,64,0.00,,,0.01,meteohub,2013-04-06 15:27:00,
2013-04-06 11:32:00,65.8,52.0,30.14,SSW,202,8.0,16.0,61,0.00,,,0.01,meteohub,2013-04-06 15:32:00,
2013-04-06 11:37:00,66.4,51.6,30.14,SSE,155,10.0,16.0,59,0.00,,,0.01,meteohub,2013-04-06 15:37:00,
2013-04-06 11:43:00,66.0,50.9,30.14,SSE,153,8.0,16.0,58,0.00,,,0.01,meteohub,2013-04-06 15:43:00,
2013-04-06 11:48:00,66.6,51.3,30.14,SSE,168,6.0,16.0,58,0.00,,,0.01,meteohub,2013-04-06 15:48:00,
2013-04-06 11:54:00,66.9,50.7,30.14,SSE,165,4.0,16.0,56,0.00,,,0.01,meteohub,2013-04-06 15:54:00,
2013-04-06 11:59:00,67.5,51.6,30.14,SW,222,5.0,16.0,57,0.00,,,0.01,meteohub,2013-04-06 15:59:00,
2013-04-06 12:05:00,68.0,52.2,30.14,SSW,194,8.0,14.0,57,0.00,,,0.01,meteohub,2013-04-06 16:05:00,
2013-04-06 12:11:00,68.2,51.8,30.14,SW,215,3.0,12.0,56,0.00,,,0.01,meteohub,2013-04-06 16:11:00,
2013-04-06 12:16:00,68.2,52.3,30.14,SSE,168,8.0,12.0,57,0.00,,,0.01,meteohub,2013-04-06 16:16:00,
2013-04-06 12:21:00,68.2,51.4,30.14,South,179,10.0,12.0,55,0.00,,,0.01,meteohub,2013-04-06 16:21:00,
2013-04-06 12:26:00,68.7,50.9,30.14,SSW,200,2.0,12.0,53,0.00,,,0.01,meteohub,2013-04-06 16:26:00,
2013-04-06 12:32:00,69.1,51.3,30.15,SSW,192,7.0,12.0,53,0.00,,,0.01,meteohub,2013-04-06 16:32:00,
2013-04-06 12:37:00,68.9,50.0,30.15,SSW,194,12.0,12.0,51,0.00,,,0.01,meteohub,2013-04-06 16:37:00,
2013-04-06 12:42:00,68.9,50.5,30.14,South,191,7.0,17.0,52,0.00,,,0.01,meteohub,2013-04-06 16:42:00,
2013-04-06 12:47:00,69.1,50.7,30.14,SW,221,4.0,17.0,52,0.00,,,0.01,meteohub,2013-04-06 16:47:00,
2013-04-06 12:52:00,69.3,50.4,30.13,SW,223,2.0,17.0,51,0.00,,,0.01,meteohub,2013-04-06 16:52:00,
2013-04-06 12:57:00,69.4,50.5,30.14,SW,223,2.0,12.0,51,0.00,,,0.01,meteohub,2013-04-06 16:57:00,
2013-04-06 13:03:00,70.0,52.5,30.14,SW,217,13.0,13.0,54,0.00,,,0.01,meteohub,2013-04-06 17:03:00,
2013-04-06 13:08:00,69.8,52.3,30.14,South,176,6.0,13.0,54,0.00,,,0.01,meteohub,2013-04-06 17:08:00,
2013-04-06 13:14:00,69.6,52.2,30.14,SSW,194,4.0,13.0,54,0.00,,,0.01,meteohub,2013-04-06 17:14:00,
2013-04-06 13:19:00,70.0,52.5,30.14,SSW,205,1.0,13.0,54,0.00,,,0.01,meteohub,2013-04-06 17:19:00,
2013-04-06 13:24:00,70.2,52.2,30.14,SSW,194,10.0,13.0,53,0.00,,,0.01,meteohub,2013-04-06 17:24:00,
2013-04-06 13:30:00,70.3,53.4,30.14,SSE,156,2.0,12.0,55,0.00,,,0.01,meteohub,2013-04-06 17:30:00,
2013-04-06 13:35:00,70.5,52.5,30.14,SSW,213,7.0,13.0,53,0.00,,,0.01,meteohub,2013-04-06 17:35:00,
2013-04-06 13:40:00,70.5,53.1,30.14,WSW,251,4.0,18.0,54,0.00,,,0.01,meteohub,2013-04-06 17:40:00,
2013-04-06 13:45:00,70.5,52.5,30.14,SSW,196,12.0,18.0,53,0.00,,,0.01,meteohub,2013-04-06 17:45:00,
2013-04-06 13:50:00,70.9,52.9,30.14,NNE,28,4.0,14.0,53,0.00,,,0.01,meteohub,2013-04-06 17:50:00,
2013-04-06 13:55:00,71.4,51.8,30.14,West,260,3.0,14.0,50,0.00,,,0.01,meteohub,2013-04-06 17:55:00,
2013-04-06 14:00:00,71.8,53.2,30.14,SSW,213,0.0,14.0,52,0.00,,,0.01,meteohub,2013-04-06 18:00:00,
2013-04-06 14:06:00,72.0,52.9,30.14,WSW,255,2.0,10.0,51,0.00,,,0.01,meteohub,2013-04-06 18:06:00,
2013-04-06 14:11:00,71.2,52.2,30.13,SSW,207,3.0,12.0,51,0.00,,,0.01,meteohub,2013-04-06 18:11:00,
2013-04-06 14:17:00,70.9,52.3,30.12,SSE,161,2.0,12.0,52,0.00,,,0.01,meteohub,2013-04-06 18:17:00,
2013-04-06 14:22:00,71.2,52.2,30.12,South,187,5.0,12.0,51,0.00,,,0.01,meteohub,2013-04-06 18:22:00,
2013-04-06 14:27:00,71.8,53.8,30.12,WSW,237,2.0,12.0,53,0.00,,,0.01,meteohub,2013-04-06 18:27:00,
2013-04-06 14:32:00,71.8,53.2,30.12,South,185,4.0,12.0,52,0.00,,,0.01,meteohub,2013-04-06 18:32:00,
2013-04-06 14:38:00,71.4,53.4,30.12,SSW,195,6.0,15.0,53,0.00,,,0.01,meteohub,2013-04-06 18:38:00,
2013-04-06 14:43:00,71.4,55.9,30.11,South,190,3.0,15.0,58,0.00,,,0.01,meteohub,2013-04-06 18:43:00,
2013-04-06 14:48:00,72.0,55.4,30.11,SSW,194,0.0,11.0,56,0.00,,,0.01,meteohub,2013-04-06 18:48:00,
2013-04-06 14:53:00,72.5,55.9,30.11,SSE,165,1.0,11.0,56,0.00,,,0.01,meteohub,2013-04-06 18:53:00,
2013-04-06 14:58:00,73.2,56.1,30.11,SW,230,0.0,9.0,55,0.00,,,0.01,meteohub,2013-04-06 18:58:00,
2013-04-06 15:04:00,73.2,56.1,30.10,West,259,3.0,13.0,55,0.00,,,0.01,meteohub,2013-04-06 19:04:00,
2013-04-06 15:09:00,73.6,55.9,30.10,SSW,213,8.0,13.0,54,0.00,,,0.01,meteohub,2013-04-06 19:09:00,
2013-04-06 15:14:00,73.4,56.3,30.10,South,180,11.0,13.0,55,0.00,,,0.01,meteohub,2013-04-06 19:14:00,
2013-04-06 15:19:00,72.5,55.9,30.10,WNW,290,2.0,14.0,56,0.00,,,0.01,meteohub,2013-04-06 19:19:00,
2013-04-06 15:24:00,72.1,56.1,30.10,SSW,209,4.0,14.0,57,0.00,,,0.01,meteohub,2013-04-06 19:24:00,
2013-04-06 15:30:00,72.0,56.3,30.09,WSW,240,0.0,11.0,58,0.00,,,0.01,meteohub,2013-04-06 19:30:00,
2013-04-06 15:35:00,72.7,56.1,30.09,WSW,238,3.0,11.0,56,0.00,,,0.01,meteohub,2013-04-06 19:35:00,
2013-04-06 15:40:00,73.0,56.5,30.08,WSW,244,0.0,10.0,56,0.00,,,0.01,meteohub,2013-04-06 19:40:00,
2013-04-06 15:45:00,73.2,55.6,30.08,WSW,242,3.0,10.0,54,0.00,,,0.01,meteohub,2013-04-06 19:45:00,
2013-04-06 15:50:00,73.2,55.6,30.08,South,186,2.0,13.0,54,0.00,,,0.01,meteohub,2013-04-06 19:50:00,
2013-04-06 15:55:00,73.0,55.9,30.07,SE,138,11.0,13.0,55,0.00,,,0.01,meteohub,2013-04-06 19:55:00,
2013-04-06 16:01:00,72.7,55.6,30.07,South,186,1.0,15.0,55,0.00,,,0.01,meteohub,2013-04-06 20:01:00,
2013-04-06 16:06:00,72.3,55.8,30.07,SSE,158,10.0,15.0,56,0.00,,,0.01,meteohub,2013-04-06 20:06:00,
2013-04-06 16:11:00,72.5,56.5,30.06,SSW,200,9.0,15.0,57,0.00,,,0.01,meteohub,2013-04-06 20:11:00,
2013-04-06 16:16:00,72.7,56.1,30.07,SW,215,0.0,12.0,56,0.00,,,0.01,meteohub,2013-04-06 20:16:00,
2013-04-06 16:22:00,72.7,56.5,30.07,SW,223,8.0,14.0,57,0.00,,,0.01,meteohub,2013-04-06 20:22:00,
2013-04-06 16:27:00,72.3,56.3,30.06,WSW,238,1.0,14.0,57,0.00,,,0.01,meteohub,2013-04-06 20:27:00,
2013-04-06 16:32:00,72.1,56.5,30.06,South,190,4.0,14.0,58,0.00,,,0.01,meteohub,2013-04-06 20:32:00,
2013-04-06 16:37:00,72.5,56.8,30.06,SW,225,10.0,14.0,58,0.00,,,0.01,meteohub,2013-04-06 20:37:00,
2013-04-06 16:43:00,72.3,56.3,30.06,SSW,193,3.0,11.0,57,0.00,,,0.01,meteohub,2013-04-06 20:43:00,
2013-04-06 16:48:00,71.8,56.1,30.05,South,182,0.0,11.0,58,0.00,,,0.01,meteohub,2013-04-06 20:48:00,
2013-04-06 16:53:00,71.6,56.1,30.06,SSW,193,0.0,13.0,58,0.00,,,0.01,meteohub,2013-04-06 20:53:00,
2013-04-06 16:59:00,72.0,56.3,30.06,WNW,283,2.0,13.0,58,0.00,,,0.01,meteohub,2013-04-06 20:59:00,
2013-04-06 17:04:00,72.0,56.8,30.05,West,276,0.0,13.0,59,0.00,,,0.01,meteohub,2013-04-06 21:04:00,
2013-04-06 17:10:00,72.3,56.7,30.05,SW,216,4.0,10.0,58,0.00,,,0.01,meteohub,2013-04-06 21:10:00,
2013-04-06 17:15:00,72.5,56.8,30.05,South,191,2.0,10.0,58,0.00,,,0.01,meteohub,2013-04-06 21:15:00,
2013-04-06 17:20:00,72.3,56.3,30.05,NW,324,0.0,10.0,57,0.00,,,0.01,meteohub,2013-04-06 21:20:00,
2013-04-06 17:25:00,72.3,56.3,30.04,SSW,211,4.0,9.0,57,0.00,,,0.01,meteohub,2013-04-06 21:25:00,
2013-04-06 17:30:00,72.1,56.5,30.05,WSW,254,7.0,10.0,58,0.00,,,0.01,meteohub,2013-04-06 21:30:00,
2013-04-06 17:35:00,72.1,56.5,30.05,South,184,3.0,14.0,58,0.00,,,0.01,meteohub,2013-04-06 21:35:00,
2013-04-06 17:41:00,72.0,56.3,30.04,SSE,165,1.0,14.0,58,0.00,,,0.01,meteohub,2013-04-06 21:41:00,
2013-04-06 17:46:00,72.0,56.8,30.05,SSW,213,0.0,14.0,59,0.00,,,0.01,meteohub,2013-04-06 21:46:00,
2013-04-06 17:51:00,72.3,56.7,30.04,NW,310,5.0,12.0,58,0.00,,,0.01,meteohub,2013-04-06 21:51:00,
2013-04-06 17:56:00,72.7,57.0,30.04,West,279,1.0,11.0,58,0.00,,,0.01,meteohub,2013-04-06 21:56:00,
2013-04-06 18:02:00,72.7,56.5,30.04,SSE,153,0.0,11.0,57,0.00,,,0.01,meteohub,2013-04-06 22:02:00,
2013-04-06 18:07:00,72.9,57.2,30.04,SW,234,0.0,11.0,58,0.00,,,0.00,meteohub,2013-04-06 22:07:00,
2013-04-06 18:12:00,72.9,57.2,30.04,West,272,1.0,10.0,58,0.00,,,0.00,meteohub,2013-04-06 22:12:00,
2013-04-06 18:17:00,72.9,56.7,30.04,WSW,244,0.0,10.0,57,0.00,,,0.00,meteohub,2013-04-06 22:17:00,
2013-04-06 18:22:00,72.7,57.0,30.04,South,187,4.0,11.0,58,0.00,,,0.00,meteohub,2013-04-06 22:22:00,
2013-04-06 18:28:00,72.1,56.1,30.04,SSW,211,5.0,11.0,57,0.00,,,0.00,meteohub,2013-04-06 22:28:00,
2013-04-06 18:33:00,71.8,56.1,30.04,SW,235,1.0,12.0,58,0.00,,,0.00,meteohub,2013-04-06 22:33:00,
2013-04-06 18:38:00,71.8,56.7,30.04,SSW,205,0.0,12.0,59,0.00,,,0.00,meteohub,2013-04-06 22:38:00,
2013-04-06 18:43:00,72.0,56.3,30.04,SE,134,0.0,12.0,58,0.00,,,0.00,meteohub,2013-04-06 22:43:00,
2013-04-06 18:49:00,72.1,57.0,30.04,WNW,302,2.0,8.0,59,0.00,,,0.00,meteohub,2013-04-06 22:49:00,
2013-04-06 18:54:00,72.3,57.2,30.04,WSW,248,0.0,10.0,59,0.00,,,0.00,meteohub,2013-04-06 22:54:00,
2013-04-06 18:59:00,72.3,56.7,30.04,SSW,210,0.0,10.0,58,0.00,,,0.00,meteohub,2013-04-06 22:59:00,
2013-04-06 19:05:00,71.8,56.7,30.04,SSW,210,0.0,4.0,59,0.00,,,0.00,meteohub,2013-04-06 23:05:00,
2013-04-06 19:10:00,71.2,56.1,30.04,SW,217,0.0,8.0,59,0.00,,,0.00,meteohub,2013-04-06 23:10:00,
2013-04-06 19:15:00,70.9,55.8,30.04,SSW,193,2.0,8.0,59,0.00,,,0.00,meteohub,2013-04-06 23:15:00,
2013-04-06 19:20:00,70.3,56.3,30.04,WSW,245,3.0,10.0,61,0.00,,,0.00,meteohub,2013-04-06 23:20:00,
2013-04-06 19:25:00,70.2,56.1,30.04,SSW,211,2.0,10.0,61,0.00,,,0.00,meteohub,2013-04-06 23:25:00,
2013-04-06 19:31:00,70.3,56.7,30.04,South,182,4.0,6.0,62,0.00,,,0.00,meteohub,2013-04-06 23:31:00,
2013-04-06 19:36:00,70.2,56.5,30.04,SW,234,2.0,8.0,62,0.00,,,0.00,meteohub,2013-04-06 23:36:00,
2013-04-06 19:42:00,70.2,56.5,30.04,SW,234,0.0,8.0,62,0.00,,,0.00,meteohub,2013-04-06 23:42:00,
2013-04-06 19:47:00,70.0,56.3,30.04,SSW,210,7.0,10.0,62,0.00,,,0.00,meteohub,2013-04-06 23:47:00,
2013-04-06 19:52:00,69.6,56.5,30.04,WSW,251,2.0,10.0,63,0.00,,,0.00,meteohub,2013-04-06 23:52:00,
2013-04-06 19:58:00,69.3,56.1,30.04,WSW,246,0.0,10.0,63,0.00,,,0.00,meteohub,2013-04-06 23:58:00,
2013-04-06 20:03:00,69.1,55.9,30.04,SW,223,0.0,13.0,63,0.00,,,0.00,meteohub,2013-04-07 00:03:00,
2013-04-06 20:09:00,68.7,56.1,30.03,WSW,238,4.0,13.0,64,0.00,,,0.00,meteohub,2013-04-07 00:09:00,
2013-04-06 20:14:00,68.4,55.8,30.03,SSW,211,1.0,13.0,64,0.00,,,0.00,meteohub,2013-04-07 00:14:00,
2013-04-06 20:19:00,68.0,55.8,30.04,SW,228,3.0,8.0,65,0.00,,,0.00,meteohub,2013-04-07 00:19:00,
2013-04-06 20:24:00,67.6,55.9,30.03,SW,227,0.0,8.0,66,0.00,,,0.00,meteohub,2013-04-07 00:24:00,
2013-04-06 20:30:00,67.5,55.8,30.03,WSW,258,0.0,5.0,66,0.00,,,0.00,meteohub,2013-04-07 00:30:00,
2013-04-06 20:35:00,66.9,55.6,30.03,SSW,201,3.0,5.0,67,0.00,,,0.00,meteohub,2013-04-07 00:35:00,
2013-04-06 20:40:00,66.6,55.6,30.03,SSW,205,3.0,9.0,68,0.00,,,0.00,meteohub,2013-04-07 00:40:00,
2013-04-06 20:46:00,66.4,55.9,30.03,SSW,205,1.0,9.0,69,0.00,,,0.00,meteohub,2013-04-07 00:46:00,
2013-04-06 20:51:00,66.2,55.8,30.03,SSW,205,1.0,8.0,69,0.00,,,0.00,meteohub,2013-04-07 00:51:00,
2013-04-06 20:56:00,65.8,55.4,30.04,SSW,206,0.0,4.0,69,0.00,,,0.00,meteohub,2013-04-07 00:56:00,
2013-04-06 21:01:00,65.8,55.4,30.04,SW,232,1.0,4.0,69,0.00,,,0.00,meteohub,2013-04-07 01:01:00,
2013-04-06 21:07:00,65.5,55.4,30.04,SW,232,0.0,4.0,70,0.00,,,0.00,meteohub,2013-04-07 01:07:00,
2013-04-06 21:12:00,65.3,55.2,30.04,SW,232,0.0,4.0,70,0.00,,,0.00,meteohub,2013-04-07 01:12:00,
2013-04-06 21:17:00,65.1,55.4,30.04,SW,232,0.0,3.0,71,0.00,,,0.00,meteohub,2013-04-07 01:17:00,
2013-04-06 21:22:00,64.8,55.2,30.04,SW,232,0.0,2.0,71,0.00,,,0.00,meteohub,2013-04-07 01:22:00,
2013-04-06 21:28:00,64.6,55.4,30.04,SW,232,0.0,1.0,72,0.00,,,0.00,meteohub,2013-04-07 01:28:00,
2013-04-06 21:33:00,64.4,55.2,30.04,SSW,209,0.0,2.0,72,0.00,,,0.00,meteohub,2013-04-07 01:33:00,
2013-04-06 21:38:00,64.2,55.4,30.04,SSW,209,0.0,4.0,73,0.00,,,0.00,meteohub,2013-04-07 01:38:00,
2013-04-06 21:43:00,64.0,55.2,30.04,SSW,209,0.0,4.0,73,0.00,,,0.00,meteohub,2013-04-07 01:43:00,
2013-04-06 21:49:00,63.9,55.4,30.04,SSW,209,0.0,2.0,74,0.00,,,0.00,meteohub,2013-04-07 01:49:00,
2013-04-06 21:54:00,63.7,55.2,30.04,SSW,209,0.0,2.0,74,0.00,,,0.00,meteohub,2013-04-07 01:54:00,
2013-04-06 21:59:00,63.7,55.6,30.05,SSW,209,0.0,3.0,75,0.00,,,0.00,meteohub,2013-04-07 01:59:00,
2013-04-06 22:04:00,63.5,55.4,30.05,SSW,209,0.0,3.0,75,0.00,,,0.00,meteohub,2013-04-07 02:04:00,
2013-04-06 22:10:00,63.1,55.0,30.05,SSW,209,0.0,2.0,75,0.00,,,0.00,meteohub,2013-04-07 02:10:00,
2013-04-06 22:15:00,63.1,55.4,30.05,SSW,209,0.0,2.0,76,0.00,,,0.00,meteohub,2013-04-07 02:15:00,
2013-04-06 22:20:00,63.0,55.2,30.05,SSW,209,0.0,3.0,76,0.00,,,0.00,meteohub,2013-04-07 02:20:00,
2013-04-06 22:25:00,62.8,55.4,30.06,SSW,209,0.0,3.0,77,0.00,,,0.00,meteohub,2013-04-07 02:25:00,
2013-04-06 22:31:00,62.6,55.6,30.06,SSW,209,0.0,3.0,78,0.00,,,0.00,meteohub,2013-04-07 02:31:00,
2013-04-06 22:36:00,62.4,55.4,30.06,SSW,209,0.0,1.0,78,0.00,,,0.00,meteohub,2013-04-07 02:36:00,
2013-04-06 22:42:00,62.2,55.2,30.06,SSW,209,0.0,0.0,78,0.00,,,0.00,meteohub,2013-04-07 02:42:00,
2013-04-06 22:47:00,62.1,55.4,30.06,SSW,209,0.0,0.0,79,0.00,,,0.00,meteohub,2013-04-07 02:47:00,
2013-04-06 22:52:00,61.5,54.9,30.05,SSW,209,0.0,0.0,79,0.00,,,0.00,meteohub,2013-04-07 02:52:00,
2013-04-06 22:57:00,61.3,55.0,30.05,SSW,209,0.0,1.0,80,0.00,,,0.00,meteohub,2013-04-07 02:57:00,
2013-04-06 23:02:00,61.2,54.9,30.05,SSW,209,0.0,1.0,80,0.00,,,0.00,meteohub,2013-04-07 03:02:00,
2013-04-06 23:08:00,61.2,54.9,30.05,SSW,209,0.0,1.0,80,0.00,,,0.00,meteohub,2013-04-07 03:08:00,
2013-04-06 23:13:00,61.2,55.2,30.05,SSW,209,0.0,1.0,81,0.00,,,0.00,meteohub,2013-04-07 03:13:00,
2013-04-06 23:18:00,61.2,55.2,30.06,SSW,209,0.0,0.0,81,0.00,,,0.00,meteohub,2013-04-07 03:18:00,
2013-04-06 23:23:00,61.0,55.4,30.06,SSW,209,0.0,0.0,82,0.00,,,0.00,meteohub,2013-04-07 03:23:00,
2013-04-06 23:29:00,60.8,55.2,30.06,SSW,209,0.0,0.0,82,0.00,,,0.00,meteohub,2013-04-07 03:29:00,
2013-04-06 23:34:00,60.6,55.0,30.06,SSW,209,0.0,0.0,82,0.00,,,0.00,meteohub,2013-04-07 03:34:00,
2013-04-06 23:40:00,60.6,55.0,30.06,SSW,209,0.0,0.0,82,0.00,,,0.00,meteohub,2013-04-07 03:40:00,
2013-04-06 23:45:00,60.6,55.0,30.06,SSW,209,0.0,1.0,82,0.00,,,0.00,meteohub,2013-04-07 03:45:00,
2013-04-06 23:50:00,60.6,55.4,30.06,SSW,209,0.0,0.0,83,0.00,,,0.00,meteohub,2013-04-07 03:50:00,
2013-04-06 23:55:00,60.6,55.0,30.06,SSW,209,0.0,0.0,82,0.00,,,0.00,meteohub,2013-04-07 03:55:00,